Theta_e
348 346 345 346 345 345 341 343 343 346 345 350 350 352 353 354 355 353 357 359 359 358 362 363 362 364 365 362 363 362 364 362 361 361 360 360 359 358 358 357 355 355
346 347 347 345 345 347 343 343 343 343 346 347 351 350 352 354 355 354 354 358 359 358 360 363 362 362 361 361 362 359 358 359 359 363 360 357 358 358 357 356 356 357
346 346 345 343 343 344 346 344 345 343 345 347 349 351 351 355 354 355 354 357 357 358 359 361 362 362 362 361 361 360 360 358 356 359 357 358 357 355 357 357 356 355
345 345 344 343 342 343 344 347 347 345 346 347 348 352 352 352 353 354 355 362 357 357 358 360 362 362 362 362 362 359 360 360 360 359 358 360 360 358 357 355 356 355
345 344 343 343 342 343 341 345 348 348 347 348 349 350 353 350 351 352 355 356 357 356 357 359 360 361 363 362 362 359 359 360 360 359 357 357 359 358 357 357 356 355
346 345 344 342 341 341 340 340 345 349 349 350 349 349 349 351 349 351 352 355 356 356 358 358 359 360 362 362 361 359 358 359 359 359 358 357 357 359 360 356 354 354
345 345 343 343 341 341 340 339 340 345 349 350 351 348 347 346 352 350 351 354 355 356 357 358 357 358 361 361 361 359 357 357 356 357 357 356 356 356 358 356 356 354
345 345 345 343 341 340 340 339 339 340 344 348 349 350 348 346 347 353 352 353 354 355 356 357 358 357 358 360 359 358 358 359 358 357 356 356 356 355 356 359 357 355
345 345 345 344 342 340 340 340 340 340 342 345 347 349 350 348 346 350 353 352 353 354 355 355 356 357 357 357 358 358 357 358 358 357 358 356 356 356 356 357 356 355
345 345 345 344 343 342 341 341 341 341 343 345 347 348 350 351 349 348 353 353 352 353 354 354 355 356 356 356 357 358 357 357 356 356 355 357 357 356 357 357 356 354
347 346 344 344 343 343 342 343 343 343 344 345 348 348 349 351 351 350 351 354 354 353 354 354 355 356 356 356 356 358 357 357 356 355 355 355 356 357 362 357 357 356
349 348 346 344 344 344 343 344 345 346 346 347 349 349 350 351 352 351 351 354 355 355 355 355 355 356 356 355 356 357 357 357 357 357 356 355 355 356 359 358 357 357
351 350 349 347 346 345 346 346 345 347 348 349 350 351 350 351 352 352 352 353 355 356 356 356 355 355 355 355 355 355 356 356 356 356 356 357 356 355 356 358 358 358
353 352 351 350 348 348 347 347 347 347 349 350 351 350 351 351 352 353 353 354 355 356 357 358 356 355 355 354 354 354 354 355 355 355 356 356 356 356 356 357 358 358
354 354 353 352 351 349 349 348 348 347 349 351 352 351 352 352 353 354 354 354 355 356 356 358 357 355 356 355 354 353 353 354 355 355 355 355 355 355 355 355 356 357
355 355 354 354 352 350 350 350 349 349 350 352 352 352 352 353 353 354 354 354 354 355 356 358 358 357 352 343 347 354 353 354 355 354 354 355 355 354 354 355 355 356
355 354 354 353 353 352 351 350 350 351 351 352 353 353 353 353 353 353 354 355 355 355 355 356 358 358 343 335 338 344 354 355 354 354 354 354 354 354 353 353 355 356
355 355 354 353 354 353 352 351 351 351 351 352 353 354 354 354 353 352 354 354 355 355 356 357 357 349 336 334 335 336 345 356 355 353 354 354 354 354 354 353 353 355
356 355 354 354 354 354 353 352 351 351 351 351 353 355 354 354 353 352 353 354 355 354 355 357 357 344 333 332 333 334 336 350 355 354 353 354 354 354 354 354 353 353
356 355 355 355 355 355 354 352 351 351 352 352 353 355 354 354 354 353 353 354 355 354 355 358 358 345 331 329 329 330 333 340 356 355 353 353 354 355 355 354 354 353
356 355 355 355 355 355 354 353 352 351 352 352 353 354 354 353 353 353 353 354 355 356 355 357 360 340 329 326 326 327 330 336 355 356 355 353 353 355 356 356 355 355
357 355 355 355 355 355 354 353 352 351 351 352 353 353 355 355 354 354 353 353 354 356 356 355 359 334 327 325 325 326 329 344 354 356 356 355 355 354 356 357 357 356
357 356 355 355 355 354 354 354 353 352 352 354 352 352 353 354 354 354 354 354 353 354 356 356 357 337 326 324 323 324 329 348 353 355 356 355 356 357 357 357 358 357
358 357 356 356 355 354 354 355 355 354 353 354 353 351 351 353 354 354 354 354 353 353 353 354 356 339 322 322 322 322 332 349 353 354 355 355 355 356 357 359 361 368
358 357 356 356 355 355 355 355 355 355 354 355 354 353 352 353 355 354 354 354 354 354 352 352 354 342 318 322 320 320 331 350 352 353 353 354 354 354 355 356 356 362
359 358 357 357 356 356 356 356 357 356 355 354 354 354 352 352 354 354 354 354 355 355 355 354 353 353 330 318 318 318 322 348 352 352 352 353 354 353 353 354 354 355
Wind_Speed
10 9 9 9 10 9 8 7 6 7 8 7 8 8 9 7 7 7 7 7 8 7 5 6 6 5 5 4 3 3 2 2 3 5 6 6 5 4 4 5 4 5
13 11 10 8 8 8 8 8 8 8 7 7 8 7 6 7 7 7 7 8 8 8 7 6 6 5 5 4 3 4 3 2 1 2 5 5 5 5 5 4 4 2
13 12 12 11 10 10 11 10 9 8 8 7 6 6 6 6 7 6 7 8 8 8 8 7 6 6 6 5 5 4 5 4 3 3 3 5 5 5 4 3 2 3
15 14 13 13 12 11 9 10 9 9 8 7 7 8 8 7 7 8 7 8 8 8 8 7 7 7 7 7 6 6 6 5 5 4 3 3 4 5 5 4 4 3
16 15 13 12 12 11 9 9 11 10 10 10 9 7 8 8 8 8 8 8 8 8 8 8 7 7 7 7 6 6 6 6 5 5 4 4 3 4 4 3 3 4
14 14 14 13 12 12 12 11 11 11 11 10 11 9 8 9 9 9 9 9 8 9 8 8 8 7 8 7 7 7 6 6 6 6 5 5 4 3 3 4 4 4
16 15 15 14 13 13 13 13 11 11 11 10 9 11 10 8 8 10 10 10 10 9 9 9 8 8 7 8 8 7 7 7 6 7 6 6 5 4 3 4 5 5
17 16 15 14 15 14 14 14 13 12 11 10 10 11 11 12 9 8 9 11 10 10 10 9 9 9 8 7 8 8 8 7 6 7 8 7 6 6 5 4 3 4
16 16 16 16 17 15 16 15 14 13 12 12 12 10 10 11 12 10 9 11 11 10 10 9 9 9 8 8 8 9 9 8 8 7 7 8 7 7 7 5 5 4
17 16 18 17 17 16 17 16 15 14 13 13 13 11 11 10 11 12 9 10 11 11 11 10 9 10 10 10 10 10 10 9 8 8 7 7 8 7 7 6 6 5
18 17 18 19 19 17 18 17 16 14 13 14 13 13 12 11 11 11 10 11 12 12 12 11 11 11 11 11 10 9 10 9 9 8 8 8 8 8 7 7 7 6
19 18 19 20 20 18 18 18 16 15 15 14 14 14 13 13 13 11 11 12 12 12 12 12 11 11 12 12 11 10 9 9 9 8 7 8 8 8 8 7 8 8
19 19 18 19 19 18 16 16 16 16 16 15 15 14 14 13 13 13 12 12 13 12 12 12 12 11 11 11 11 10 10 9 9 9 9 7 7 9 8 8 8 8
19 18 18 17 17 17 16 17 16 16 16 15 14 15 15 14 13 14 13 12 12 12 12 11 11 11 11 11 11 10 9 9 10 9 10 9 8 7 8 8 9 8
17 16 16 15 16 16 16 16 16 16 15 14 14 15 13 14 13 14 13 13 12 12 12 11 11 11 10 11 11 11 10 10 10 10 10 10 9 9 8 8 7 8
15 14 15 15 16 17 17 16 16 16 15 15 15 15 14 14 13 13 14 14 13 13 12 11 10 10 12 17 15 11 11 9 9 10 10 9 9 9 9 9 9 8
14 14 15 16 17 16 16 16 16 15 15 15 15 15 15 14 13 13 14 14 14 13 13 11 11 10 17 17 18 18 12 10 9 9 9 9 9 9 10 10 9 9
15 15 15 16 16 16 16 16 15 15 15 15 14 15 14 13 14 13 13 14 13 13 13 12 11 13 17 18 19 18 16 12 10 8 9 10 9 9 9 9 9 9
14 15 16 16 16 16 15 15 15 15 16 15 16 15 14 15 15 14 12 13 14 14 13 13 12 15 17 19 19 19 19 16 10 10 9 9 10 10 9 9 8 8
15 15 16 16 15 15 14 15 16 16 16 15 14 13 15 15 15 15 12 12 13 14 13 13 13 15 18 19 19 19 19 17 11 11 10 9 9 10 9 9 9 9
16 16 16 15 14 14 14 16 17 15 15 14 14 15 15 15 15 15 14 12 12 13 13 13 12 17 18 19 19 20 20 17 12 10 9 9 9 8 10 10 10 9
18 17 16 15 15 15 15 16 16 16 16 14 13 13 12 12 13 13 14 13 11 12 13 13 13 19 19 20 21 21 21 13 12 11 10 9 9 8 8 9 10 10
18 18 17 16 16 16 16 16 16 16 14 12 13 13 13 13 14 14 13 14 13 12 13 13 12 16 21 21 21 22 16 11 12 11 11 11 10 9 9 8 9 10
18 18 18 17 16 18 17 16 15 13 14 13 13 13 14 14 13 12 12 13 15 14 13 12 13 14 21 21 22 22 18 14 12 11 12 11 10 8 6 6 7 12
17 18 18 18 18 17 16 16 15 15 13 12 13 12 12 11 12 12 12 12 13 14 16 15 11 12 20 22 23 22 19 12 12 11 11 11 10 10 9 8 7 8
16 17 18 18 18 16 15 15 13 12 13 14 13 12 11 11 11 12 13 12 12 13 13 14 14 9 14 21 22 22 23 15 10 11 11 12 11 10 9 9 10 9
Wind_Direction
179 182 178 177 182 189 184 179 179 176 180 173 175 183 186 185 185 187 185 183 183 190 189 184 181 172 173 173 160 135 128 149 156 181 179 175 188 201 237 248 236 208
184 183 183 178 176 184 187 185 184 180 185 182 184 181 185 182 192 187 184 184 185 188 189 184 180 173 171 165 162 156 169 177 229 166 173 181 189 195 223 241 240 219
186 184 184 185 183 182 184 188 186 189 185 189 180 180 186 187 195 192 189 181 187 188 188 187 183 178 172 173 173 165 175 187 204 237 194 190 195 197 219 248 254 252
190 190 189 190 188 186 180 182 189 190 190 186 188 187 190 195 191 195 191 187 182 187 188 186 187 182 176 175 174 179 181 185 197 205 218 215 195 185 208 223 250 245
189 192 193 192 191 190 184 182 188 190 191 194 193 188 191 196 197 195 190 188 181 184 186 187 186 187 179 178 174 180 180 187 196 197 217 225 221 191 208 202 235 261
193 192 192 193 192 189 192 193 191 189 192 190 196 195 191 193 196 196 193 189 185 184 186 188 189 187 183 180 181 183 183 185 193 191 203 213 226 205 199 196 226 241
193 192 195 194 195 194 196 197 197 195 194 194 189 198 199 194 194 198 194 192 190 189 187 188 190 191 185 183 184 186 190 188 190 192 198 212 209 231 227 206 211 216
196 194 194 193 195 196 198 199 200 200 199 195 193 197 196 204 201 195 196 192 191 192 191 188 189 190 188 182 188 188 191 193 197 192 200 204 201 212 223 230 213 212
196 195 194 194 196 197 200 199 201 202 199 198 200 199 196 199 204 200 193 193 193 192 191 191 188 190 192 188 191 191 191 195 200 193 189 197 199 204 210 215 232 227
197 197 195 195 197 198 200 201 200 202 200 200 201 199 198 200 200 202 193 192 194 192 192 192 189 192 193 196 195 193 193 196 196 202 194 192 198 201 200 202 215 226
199 197 197 197 198 198 199 199 200 200 199 202 199 201 200 198 201 200 196 192 194 193 193 193 192 192 194 198 198 195 195 194 196 197 202 200 198 198 198 199 205 215
200 199 200 199 198 198 199 198 198 198 198 200 200 201 200 199 198 199 197 195 196 194 193 195 193 192 194 197 198 196 194 194 194 200 200 201 203 200 199 197 202 212
199 201 201 200 199 199 197 198 199 199 197 199 199 201 200 200 199 199 199 196 197 195 195 194 194 194 195 197 198 196 194 193 195 200 206 203 204 205 205 199 201 205
200 200 201 200 199 198 198 198 198 199 199 198 197 201 202 202 200 199 198 198 197 197 197 193 194 195 196 197 199 198 194 195 195 199 203 210 211 209 206 206 205 206
198 199 199 199 198 197 199 199 199 199 198 196 196 199 201 202 201 198 197 199 198 197 197 195 195 198 196 197 198 200 197 197 198 199 201 203 211 214 214 211 206 207
195 196 196 196 196 197 198 198 198 197 197 197 195 197 198 199 200 196 197 197 197 197 196 196 197 199 199 196 196 197 198 200 198 201 201 202 203 209 215 216 216 213
193 196 195 196 198 198 197 198 197 196 196 196 195 194 196 196 197 196 197 196 197 197 197 200 199 199 194 195 196 196 196 201 199 201 203 203 201 202 209 213 217 216
193 194 196 199 197 198 197 197 197 196 196 195 194 193 194 193 197 197 195 194 196 197 199 201 204 198 189 194 196 196 196 200 203 200 202 204 205 203 207 209 213 214
192 194 198 198 199 199 197 196 197 198 197 195 195 193 190 193 197 195 195 193 192 195 198 200 204 199 191 193 196 197 200 200 206 206 200 204 205 207 206 207 209 213
193 195 198 200 199 197 196 197 199 200 198 196 193 189 191 195 195 197 193 192 193 193 196 198 202 197 192 193 196 198 201 201 210 207 209 207 205 206 208 207 207 210
194 196 199 199 197 196 197 199 201 202 199 196 193 191 192 193 194 195 195 192 193 192 194 197 202 192 189 192 195 198 202 200 211 210 211 214 210 205 207 208 210 210
193 195 197 196 195 196 198 201 202 201 200 197 195 195 195 194 196 195 195 194 190 191 194 199 200 186 187 190 196 200 199 198 208 210 213 216 215 210 206 209 210 211
192 194 194 193 193 195 200 201 200 201 202 196 198 197 192 193 195 196 195 195 193 190 193 199 202 188 187 190 195 200 193 201 204 209 213 215 216 212 210 208 210 212
192 192 193 192 193 198 200 200 199 200 200 196 199 198 196 194 193 196 196 198 198 197 192 191 202 189 188 190 194 196 189 197 202 205 213 215 218 217 211 210 211 213
191 191 191 192 195 199 197 197 198 198 198 197 202 202 200 191 191 196 198 199 201 202 200 197 199 188 191 192 194 193 191 199 198 203 210 214 213 218 219 221 227 224
193 191 192 192 195 195 193 197 195 193 196 199 201 202 199 195 191 195 197 200 198 201 202 205 208 192 189 197 196 194 192 194 197 198 208 212 211 211 214 221 227 233